King Salmon, AK

9:17 AM AKDT on April 24, 2018 (GMT -0800)
King Salmon

Weather History for PAKN - October, 2011

Change the Weather History Date:

Sunday, October 9, 2011

  Actual Average Record
Temperature  
Mean Temperature 38 °F 37 °F  
Max Temperature 50 °F 45 °F 58 °F (2006)
Min Temperature 26 °F 29 °F 11 °F (1981)
Degree Days  
Heating Degree Days 27 28  
Month to date heating degree days 236  
Since 1 July heating degree days 1374  
Cooling Degree Days 0 0  
Month to date cooling degree days 0  
Year to date cooling degree days 1  
Moisture  
Dew Point 33 °F    
Average Humidity 86    
Maximum Humidity 100    
Minimum Humidity 59    
Precipitation  
Precipitation 0.09 in 0.08 in 1.31 in (2008)
Month to date precipitation 0.74  
Year to date precipitation 15.53  
Snow  
Snow 0.00 in 0.00 in - ()
Month to date snowfall 0.2  
Since 1 July snowfall 0.3  
Since 1 September snowfall 0.3  
Snow Depth -    
Sea Level Pressure  
Sea Level Pressure 29.53 in    
Wind  
Wind Speed 3 mph (NNE)    
Max Wind Speed 10 mph    
Max Gust Speed -    
Visibility 9 miles    
Events Rain    
T = Trace of Precipitation, MM = Missing Value Source: NWS Daily Summary

Daily Weather History Graph

Daily Weather History Graph

Search for Another Location

Airport or City:

Astronomy

Oct. 09, 2011 Rise Set
Actual Time 8:49 AM AKDT 7:37 PM AKDT
Civil Twilight 8:09 AM AKDT 8:17 PM AKDT
Nautical Twilight 7:22 AM AKDT 9:03 PM AKDT
Astronomical Twilight 6:35 AM AKDT 9:50 PM AKDT
Moon 6:30 PM AKDT (10/9) 6:26 AM AKDT (10/9)
Length of Visible Light 12h 08m
Length of Day
10h 48m
Waxing Gibbous, 95% of the Moon is Illuminated
Oct 9
Waxing Gibbous
Oct 11
Full
Oct 19
Last Quarter
Oct 26
New
Nov 2
First Quarter

Hourly Weather History & Observations

Time (AKDT) Temp. Windchill Dew Point Humidity Pressure Visibility Wind Dir Wind Speed Gust Speed Precip Events Conditions
12:54 AM 36.0 °F 30.3 °F 33.1 °F 89% 29.57 in 10.0 mi North 6.9 mph - N/A   Overcast
1:54 AM 36.0 °F - 33.1 °F 89% 29.57 in 10.0 mi Calm Calm - N/A   Overcast
2:54 AM 35.1 °F 32.2 °F 33.1 °F 92% 29.56 in 10.0 mi NE 3.5 mph - N/A   Overcast
3:54 AM 33.1 °F - 30.0 °F 89% 29.54 in 10.0 mi Calm Calm - N/A   Mostly Cloudy
4:47 AM 30.2 °F - 28.4 °F 93% 29.53 in 1.8 mi Calm Calm - N/A   Clear
4:51 AM 28.4 °F - 28.4 °F 100% 29.53 in 6.0 mi Calm Calm - N/A   Partly Cloudy
4:54 AM 30.0 °F 26.5 °F 28.9 °F 96% 29.53 in 6.0 mi NNW 3.5 mph - N/A   Partly Cloudy
5:54 AM 28.9 °F - 28.9 °F 100% 29.52 in 10.0 mi Calm Calm - N/A   Clear
6:54 AM 27.0 °F - 26.1 °F 96% 29.52 in 10.0 mi Calm Calm - N/A   Clear
7:54 AM 27.0 °F 21.6 °F 26.1 °F 96% 29.51 in 10.0 mi NE 4.6 mph - N/A   Partly Cloudy
8:54 AM 27.0 °F - 25.0 °F 92% 29.51 in 10.0 mi Calm Calm - N/A   Scattered Clouds
9:38 AM 26.6 °F - 24.8 °F 93% 29.51 in 4.0 mi Calm Calm - N/A   Scattered Clouds
9:54 AM 27.0 °F - 25.0 °F 92% 29.51 in 7.0 mi Calm Calm - N/A   Scattered Clouds
10:33 AM 32.0 °F - 30.2 °F 93% 29.51 in 10.0 mi Calm Calm - N/A   Scattered Clouds
10:54 AM 34.0 °F - 32.0 °F 92% 29.52 in 10.0 mi Calm Calm - N/A   Scattered Clouds
11:31 AM 37.4 °F - 33.8 °F 87% 29.52 in 10.0 mi Calm Calm - N/A   Mostly Cloudy
11:54 AM 39.9 °F - 35.1 °F 83% 29.53 in 10.0 mi Calm Calm - N/A   Mostly Cloudy
12:26 PM 41.0 °F - 35.6 °F 81% 29.53 in 10.0 mi Calm Calm - N/A   Partly Cloudy
12:54 PM 43.0 °F - 36.0 °F 76% 29.53 in 10.0 mi Calm Calm - N/A   Partly Cloudy
1:54 PM 46.0 °F 43.9 °F 35.1 °F 66% 29.52 in 10.0 mi Variable 4.6 mph - N/A   Scattered Clouds
2:54 PM 48.9 °F - 35.1 °F 59% 29.52 in 10.0 mi Variable 3.5 mph - N/A   Scattered Clouds
3:54 PM 50.0 °F - 36.0 °F 59% 29.51 in 10.0 mi North 6.9 mph - N/A   Mostly Cloudy
4:54 PM 48.9 °F - 36.0 °F 61% 29.50 in 10.0 mi North 5.8 mph - N/A   Mostly Cloudy
5:54 PM 44.1 °F - 39.9 °F 85% 29.51 in 10.0 mi Calm Calm - 0.07 in Rain Light Rain
6:31 PM 44.6 °F 40.7 °F 39.2 °F 81% 29.51 in 4.0 mi NE 6.9 mph - 0.01 in Rain Light Rain
6:38 PM 44.6 °F 40.2 °F 39.2 °F 81% 29.51 in 6.0 mi NNE 8.1 mph - 0.02 in Rain Light Rain
6:54 PM 43.0 °F 39.5 °F 39.0 °F 86% 29.52 in 10.0 mi NNE 5.8 mph - 0.02 in Rain Light Rain
7:54 PM 42.1 °F 38.4 °F 37.9 °F 85% 29.53 in 10.0 mi North 5.8 mph - 0.00 in   Mostly Cloudy
8:54 PM 39.9 °F 33.9 °F 36.0 °F 86% 29.54 in 10.0 mi North 9.2 mph - N/A   Mostly Cloudy
9:54 PM 37.9 °F 30.9 °F 34.0 °F 86% 29.55 in 10.0 mi North 10.4 mph - N/A   Scattered Clouds
10:54 PM 37.0 °F 31.6 °F 33.1 °F 86% 29.56 in 10.0 mi North 6.9 mph - N/A   Mostly Cloudy
11:54 PM 37.0 °F 31.0 °F 33.1 °F 86% 29.57 in 10.0 mi North 8.1 mph - N/A   Mostly Cloudy